Year,Month,Day,Hour,Minute,Value (Times are PST for temperature in C)
2020,12,06,00,00,6.10
2020,12,06,00,01,6.10
2020,12,06,00,02,6.10
2020,12,06,00,03,6.10
2020,12,06,00,04,6.10
2020,12,06,00,05,6.10
2020,12,06,00,06,6.10
2020,12,06,00,07,6.10
2020,12,06,00,08,6.10
2020,12,06,00,09,6.10
2020,12,06,00,10,6.10
2020,12,06,00,11,6.10
2020,12,06,00,12,6.10
2020,12,06,00,13,6.10
2020,12,06,00,14,6.10
2020,12,06,00,15,6.10
2020,12,06,00,16,6.10
2020,12,06,00,17,6.10
2020,12,06,00,18,6.10
2020,12,06,00,19,6.10
2020,12,06,00,20,6.10
2020,12,06,00,21,6.10
2020,12,06,00,22,6.10
2020,12,06,00,23,6.00
2020,12,06,00,24,6.00
2020,12,06,00,25,6.00
2020,12,06,00,26,6.00
2020,12,06,00,27,6.00
2020,12,06,00,28,6.00
2020,12,06,00,29,6.00
2020,12,06,00,30,5.90
2020,12,06,00,31,5.90
2020,12,06,00,32,5.90
2020,12,06,00,33,5.90
2020,12,06,00,34,6.00
2020,12,06,00,35,6.00
2020,12,06,00,36,6.00
2020,12,06,00,37,6.00
2020,12,06,00,38,6.00
2020,12,06,00,39,6.00
2020,12,06,00,40,6.00
2020,12,06,00,41,6.00
2020,12,06,00,42,6.00
2020,12,06,00,43,6.00
2020,12,06,00,44,6.00
2020,12,06,00,45,6.00
2020,12,06,00,46,6.00
2020,12,06,00,47,6.00
2020,12,06,00,48,6.00
2020,12,06,00,49,6.00
2020,12,06,00,50,6.00
2020,12,06,00,51,6.00
2020,12,06,00,52,6.00
2020,12,06,00,53,6.00
2020,12,06,00,54,6.00
2020,12,06,00,55,6.10
2020,12,06,00,56,6.10
2020,12,06,00,57,6.10
2020,12,06,00,58,6.10
2020,12,06,00,59,6.10
2020,12,06,01,00,6.10
2020,12,06,01,01,6.10
2020,12,06,01,02,6.10
2020,12,06,01,03,6.20
2020,12,06,01,04,6.20
2020,12,06,01,05,6.20
2020,12,06,01,06,6.20
2020,12,06,01,07,6.30
2020,12,06,01,08,6.30
2020,12,06,01,09,6.40
2020,12,06,01,10,6.40
2020,12,06,01,11,6.50
2020,12,06,01,12,6.60
2020,12,06,01,13,6.70
2020,12,06,01,14,6.80
2020,12,06,01,15,6.90
2020,12,06,01,16,7.00
2020,12,06,01,17,7.10
2020,12,06,01,18,7.20
2020,12,06,01,19,7.30
2020,12,06,01,20,7.40
2020,12,06,01,21,7.40
2020,12,06,01,22,7.50
2020,12,06,01,23,7.60
2020,12,06,01,24,7.60
2020,12,06,01,25,7.70
2020,12,06,01,26,7.70
2020,12,06,01,27,7.70
2020,12,06,01,28,7.70
2020,12,06,01,29,7.60
2020,12,06,01,30,7.40
2020,12,06,01,31,7.20
2020,12,06,01,32,7.00
2020,12,06,01,33,6.80
2020,12,06,01,34,6.70
2020,12,06,01,35,6.50
2020,12,06,01,36,6.40
2020,12,06,01,37,6.40
2020,12,06,01,38,6.30
2020,12,06,01,39,6.20
2020,12,06,01,40,6.20
2020,12,06,01,41,6.10
2020,12,06,01,42,6.00
2020,12,06,01,43,6.00
2020,12,06,01,44,6.00
2020,12,06,01,45,5.90
2020,12,06,01,46,5.90
2020,12,06,01,47,5.90
2020,12,06,01,48,5.90
2020,12,06,01,49,5.90
2020,12,06,01,50,5.90
2020,12,06,01,51,5.90
2020,12,06,01,52,5.80
2020,12,06,01,53,5.80
2020,12,06,01,54,5.80
2020,12,06,01,55,5.80
2020,12,06,01,56,5.80
2020,12,06,01,57,5.80
2020,12,06,01,58,5.80
2020,12,06,01,59,5.90
2020,12,06,02,00,5.90
2020,12,06,02,01,5.90
2020,12,06,02,02,5.90
2020,12,06,02,03,5.90
2020,12,06,02,04,6.00
2020,12,06,02,05,6.00
2020,12,06,02,06,6.00
2020,12,06,02,07,6.00
2020,12,06,02,08,6.10
2020,12,06,02,09,6.10
2020,12,06,02,10,6.10
2020,12,06,02,11,6.10
2020,12,06,02,12,6.10
2020,12,06,02,13,6.10
2020,12,06,02,14,6.10
2020,12,06,02,15,6.10
2020,12,06,02,16,6.10
2020,12,06,02,17,6.10
2020,12,06,02,18,6.10
2020,12,06,02,19,6.10
2020,12,06,02,20,6.10
2020,12,06,02,21,6.10
2020,12,06,02,22,6.10
2020,12,06,02,23,6.10
2020,12,06,02,24,6.10
2020,12,06,02,25,6.10
2020,12,06,02,26,6.10
2020,12,06,02,27,6.10
2020,12,06,02,28,6.00
2020,12,06,02,29,6.00
2020,12,06,02,30,6.00
2020,12,06,02,31,6.10
2020,12,06,02,32,6.10
2020,12,06,02,33,6.10
2020,12,06,02,34,6.10
2020,12,06,02,35,6.10
2020,12,06,02,36,6.10
2020,12,06,02,37,6.10
2020,12,06,02,38,6.10
2020,12,06,02,39,6.10
2020,12,06,02,40,6.20
2020,12,06,02,41,6.10
2020,12,06,02,42,6.20
2020,12,06,02,43,6.20
2020,12,06,02,44,6.20
2020,12,06,02,45,6.20
2020,12,06,02,46,6.20
2020,12,06,02,47,6.30
2020,12,06,02,48,6.30
2020,12,06,02,49,6.30
2020,12,06,02,50,6.30
2020,12,06,02,51,6.40
2020,12,06,02,52,6.40
2020,12,06,02,53,6.40
2020,12,06,02,54,6.40
2020,12,06,02,55,6.50
2020,12,06,02,56,6.50
2020,12,06,02,57,6.50
2020,12,06,02,58,6.50
2020,12,06,02,59,6.50
2020,12,06,03,00,6.50
2020,12,06,03,01,6.50
2020,12,06,03,02,6.40
2020,12,06,03,03,6.40
2020,12,06,03,04,6.40
2020,12,06,03,05,6.40
2020,12,06,03,06,6.40
2020,12,06,03,07,6.40
2020,12,06,03,08,6.40
2020,12,06,03,09,6.40
2020,12,06,03,10,6.30
2020,12,06,03,11,6.30
2020,12,06,03,12,6.30
2020,12,06,03,13,6.30
2020,12,06,03,14,6.30
2020,12,06,03,15,6.30
2020,12,06,03,16,6.30
2020,12,06,03,17,6.30
2020,12,06,03,18,6.30
2020,12,06,03,19,6.30
2020,12,06,03,20,6.30
2020,12,06,03,21,6.30
2020,12,06,03,22,6.30
2020,12,06,03,23,6.30
2020,12,06,03,24,6.30
2020,12,06,03,25,6.30
2020,12,06,03,26,6.40
2020,12,06,03,27,6.40
2020,12,06,03,28,6.40
2020,12,06,03,29,6.50
2020,12,06,03,30,6.50
2020,12,06,03,31,6.60
2020,12,06,03,32,6.60
2020,12,06,03,33,6.70
2020,12,06,03,34,6.70
2020,12,06,03,35,6.70
2020,12,06,03,36,6.80
2020,12,06,03,37,6.80
2020,12,06,03,38,6.80
2020,12,06,03,39,6.80
2020,12,06,03,40,6.80
2020,12,06,03,41,6.80
2020,12,06,03,42,6.80
2020,12,06,03,43,6.80
2020,12,06,03,44,6.80
2020,12,06,03,45,6.80
2020,12,06,03,46,6.80
2020,12,06,03,47,6.80
2020,12,06,03,48,6.80
2020,12,06,03,49,6.80
2020,12,06,03,50,6.80
2020,12,06,03,51,6.80
2020,12,06,03,52,6.80
2020,12,06,03,53,6.80
2020,12,06,03,54,6.80
2020,12,06,03,55,6.90
2020,12,06,03,56,6.90
2020,12,06,03,57,6.90
2020,12,06,03,58,6.80
2020,12,06,03,59,6.80
2020,12,06,04,00,6.80
2020,12,06,04,01,6.80
2020,12,06,04,02,6.80
2020,12,06,04,03,6.80
2020,12,06,04,04,6.80
2020,12,06,04,05,6.80
2020,12,06,04,06,6.80
2020,12,06,04,07,6.80
2020,12,06,04,08,6.80
2020,12,06,09,13,6.50
2020,12,06,09,14,6.50
2020,12,06,09,15,6.50
2020,12,06,09,16,6.60
2020,12,06,09,17,6.60
2020,12,06,09,18,6.70
2020,12,06,09,19,6.70
2020,12,06,09,20,6.80
2020,12,06,09,21,6.80
2020,12,06,09,22,6.80
2020,12,06,09,23,6.90
2020,12,06,09,24,6.90
2020,12,06,09,25,7.00
2020,12,06,09,26,7.00
2020,12,06,09,27,7.10
2020,12,06,09,28,7.10
2020,12,06,09,29,7.20
2020,12,06,09,30,7.20
2020,12,06,09,31,7.30
2020,12,06,09,32,7.30
2020,12,06,09,33,7.40
2020,12,06,09,34,7.40
2020,12,06,09,35,7.50
2020,12,06,09,36,7.50
2020,12,06,09,37,7.60
2020,12,06,09,38,7.60
2020,12,06,09,39,7.70
2020,12,06,09,40,7.70
2020,12,06,09,41,7.70
2020,12,06,09,42,7.80
2020,12,06,09,43,7.80
2020,12,06,09,44,7.80
2020,12,06,09,45,7.90
2020,12,06,09,46,7.90
2020,12,06,09,47,7.90
2020,12,06,09,48,8.00
2020,12,06,09,49,8.00
2020,12,06,09,50,8.10
2020,12,06,09,51,8.10
2020,12,06,09,52,8.10
2020,12,06,09,53,8.20
2020,12,06,09,54,8.20
2020,12,06,09,55,8.20
2020,12,06,09,56,8.30
2020,12,06,09,57,8.30
2020,12,06,09,58,8.30
2020,12,06,09,59,8.30
2020,12,06,10,00,8.40
2020,12,06,10,01,8.40
2020,12,06,10,02,8.40
2020,12,06,10,03,8.40
2020,12,06,10,04,8.40
2020,12,06,10,05,8.40
2020,12,06,10,06,8.40
2020,12,06,10,07,8.40
2020,12,06,10,08,8.40
2020,12,06,10,09,8.40
2020,12,06,10,10,8.40
2020,12,06,10,11,8.50
2020,12,06,10,12,8.50
2020,12,06,10,13,8.50
2020,12,06,10,14,8.50
2020,12,06,10,15,8.50
2020,12,06,10,16,8.50
2020,12,06,10,17,8.50
2020,12,06,10,18,8.50
2020,12,06,10,19,8.50
2020,12,06,10,20,8.50
2020,12,06,10,21,8.50
2020,12,06,10,22,8.60
2020,12,06,10,23,8.60
2020,12,06,10,24,8.60
2020,12,06,10,25,8.60
2020,12,06,10,26,8.60
2020,12,06,10,27,8.60
2020,12,06,10,28,8.60
2020,12,06,10,29,8.60
2020,12,06,10,30,8.60
2020,12,06,10,31,8.50
2020,12,06,10,32,8.50
2020,12,06,10,33,8.50
2020,12,06,10,34,8.50
2020,12,06,10,35,8.50
2020,12,06,10,36,8.50
2020,12,06,10,37,8.50
2020,12,06,10,38,8.50
2020,12,06,10,39,8.50
2020,12,06,10,40,8.50
2020,12,06,10,41,8.50
2020,12,06,10,42,8.50
2020,12,06,10,43,8.40
2020,12,06,10,44,8.40
2020,12,06,10,45,8.40
2020,12,06,10,46,8.40
2020,12,06,10,47,8.40
2020,12,06,10,48,8.40
2020,12,06,10,49,8.40
2020,12,06,10,50,8.40
2020,12,06,10,51,8.40
2020,12,06,10,52,8.40
2020,12,06,10,53,8.40
2020,12,06,10,54,8.40
2020,12,06,10,55,8.40
2020,12,06,10,56,8.40
2020,12,06,10,57,8.40
2020,12,06,10,58,8.40
2020,12,06,10,59,8.40
2020,12,06,11,00,8.40
2020,12,06,11,01,8.50
2020,12,06,11,02,8.50
2020,12,06,11,03,8.50
2020,12,06,11,04,8.60
2020,12,06,11,05,8.60
2020,12,06,11,06,8.60
2020,12,06,11,07,8.60
2020,12,06,11,08,8.60
2020,12,06,11,09,8.70
2020,12,06,11,10,8.70
2020,12,06,11,11,8.70
2020,12,06,11,12,8.70
2020,12,06,11,13,8.80
2020,12,06,11,14,8.80
2020,12,06,11,15,8.80
2020,12,06,11,16,8.90
2020,12,06,11,17,8.90
2020,12,06,11,18,8.90
2020,12,06,11,19,9.00
2020,12,06,11,20,9.00
2020,12,06,11,21,9.00
2020,12,06,11,22,9.10
2020,12,06,11,23,9.10
2020,12,06,11,24,9.10
2020,12,06,11,25,9.20
2020,12,06,11,26,9.20
2020,12,06,11,27,9.20
2020,12,06,11,28,9.20
2020,12,06,11,29,9.20
2020,12,06,11,30,9.20
2020,12,06,11,31,9.20
2020,12,06,11,32,9.10
2020,12,06,11,33,9.10
2020,12,06,11,34,9.20
2020,12,06,11,35,9.20
2020,12,06,11,36,9.20
2020,12,06,11,37,9.20
2020,12,06,11,38,9.20
2020,12,06,11,39,9.20
2020,12,06,11,40,9.20
2020,12,06,11,41,9.20
2020,12,06,11,42,9.20
2020,12,06,11,43,9.20
2020,12,06,11,44,9.20
2020,12,06,11,45,9.20
2020,12,06,11,46,9.20
2020,12,06,11,47,9.20
2020,12,06,11,48,9.10
2020,12,06,11,49,9.10
2020,12,06,11,50,9.10
2020,12,06,11,51,9.10
2020,12,06,11,52,9.10
2020,12,06,11,53,9.10
2020,12,06,11,54,9.10
2020,12,06,11,55,9.10
2020,12,06,11,56,9.10
2020,12,06,11,57,9.10
2020,12,06,11,58,9.10
2020,12,06,11,59,9.10
2020,12,06,12,00,9.10
2020,12,06,12,01,9.10
2020,12,06,12,02,9.10
2020,12,06,12,03,9.10
2020,12,06,12,04,9.10
2020,12,06,12,05,9.10
2020,12,06,12,06,9.10
2020,12,06,12,07,9.10
2020,12,06,12,08,9.20
2020,12,06,12,09,9.20
2020,12,06,12,10,9.30
2020,12,06,12,11,9.30
2020,12,06,12,12,9.30
2020,12,06,12,13,9.40
2020,12,06,12,14,9.40
2020,12,06,12,15,9.40
2020,12,06,12,16,9.40
2020,12,06,12,17,9.50
2020,12,06,12,18,9.50
2020,12,06,12,19,9.50
2020,12,06,12,20,9.50
2020,12,06,12,21,9.60
2020,12,06,12,22,9.60
2020,12,06,12,23,9.60
2020,12,06,12,24,9.60
2020,12,06,12,25,9.60
2020,12,06,12,26,9.70
2020,12,06,12,27,9.70
2020,12,06,12,28,9.70
2020,12,06,12,29,9.70
2020,12,06,12,30,9.70
2020,12,06,12,31,9.70
2020,12,06,12,32,9.80
2020,12,06,12,33,9.80
2020,12,06,12,34,9.80
2020,12,06,12,35,9.80
2020,12,06,12,36,9.80
2020,12,06,12,37,9.80
2020,12,06,12,38,9.80
2020,12,06,12,39,9.80
2020,12,06,12,40,9.90
2020,12,06,12,41,9.90
2020,12,06,12,42,9.90
2020,12,06,12,43,9.90
2020,12,06,12,44,9.90
2020,12,06,12,45,9.90
2020,12,06,12,46,9.90
2020,12,06,12,47,9.90
2020,12,06,12,48,9.90
2020,12,06,12,49,9.90
2020,12,06,12,50,10.00
2020,12,06,12,51,9.90
2020,12,06,12,52,10.00
2020,12,06,12,53,10.00
2020,12,06,12,54,10.00
2020,12,06,12,55,10.00
2020,12,06,12,56,10.00
2020,12,06,12,57,10.10
2020,12,06,12,58,10.10
2020,12,06,12,59,10.10
2020,12,06,13,00,10.10
2020,12,06,13,01,10.10
2020,12,06,13,02,10.10
2020,12,06,13,03,10.10
2020,12,06,13,04,10.10
2020,12,06,13,05,10.10
2020,12,06,13,06,10.10
2020,12,06,13,07,10.10
2020,12,06,13,08,10.20
2020,12,06,13,09,10.20
2020,12,06,13,10,10.20
2020,12,06,13,11,10.20
2020,12,06,13,12,10.20
2020,12,06,13,13,10.20
2020,12,06,13,14,10.20
2020,12,06,13,15,10.20
2020,12,06,13,16,10.20
2020,12,06,13,17,10.20
2020,12,06,13,18,10.20
2020,12,06,13,19,10.30
2020,12,06,13,20,10.30
2020,12,06,13,21,10.30
2020,12,06,13,22,10.30
2020,12,06,13,23,10.30
2020,12,06,13,24,10.30
2020,12,06,13,25,10.30
2020,12,06,13,26,10.30
2020,12,06,13,27,10.30
2020,12,06,13,28,10.30
2020,12,06,13,29,10.30
2020,12,06,13,30,10.30
2020,12,06,13,31,10.40
2020,12,06,13,32,10.40
2020,12,06,13,33,10.40
2020,12,06,13,34,10.40
2020,12,06,13,35,10.40
2020,12,06,13,36,10.40
2020,12,06,13,37,10.30
2020,12,06,13,38,10.40
2020,12,06,13,39,10.40
2020,12,06,13,40,10.30
2020,12,06,13,41,10.30
2020,12,06,13,42,10.30
2020,12,06,13,43,10.30
2020,12,06,13,44,10.30
2020,12,06,13,45,10.30
2020,12,06,13,46,10.30
2020,12,06,13,47,10.30
2020,12,06,13,48,10.30
2020,12,06,13,49,10.30
2020,12,06,13,50,10.30
2020,12,06,13,51,10.30
2020,12,06,13,52,10.30
2020,12,06,13,53,10.30
2020,12,06,13,54,10.30
2020,12,06,13,55,10.30
2020,12,06,13,56,10.30
2020,12,06,13,57,10.40
2020,12,06,13,58,10.40
2020,12,06,13,59,10.40
2020,12,06,14,00,10.40
2020,12,06,14,01,10.40
2020,12,06,14,02,10.40
2020,12,06,14,03,10.40
2020,12,06,14,04,10.50
2020,12,06,14,05,10.50
2020,12,06,14,06,10.50
2020,12,06,14,07,10.60
2020,12,06,14,08,10.60
2020,12,06,14,09,10.60
2020,12,06,14,10,10.60
2020,12,06,14,11,10.60
2020,12,06,14,12,10.60
2020,12,06,14,13,10.50
2020,12,06,14,14,10.50
2020,12,06,14,15,10.50
2020,12,06,14,16,10.50
2020,12,06,14,17,10.50
2020,12,06,14,18,10.50
2020,12,06,14,19,10.50
2020,12,06,14,20,10.50
2020,12,06,14,21,10.50
2020,12,06,14,22,10.40
2020,12,06,14,23,10.40
2020,12,06,14,24,10.40
2020,12,06,14,25,10.40
2020,12,06,14,26,10.40
2020,12,06,14,27,10.40
2020,12,06,14,28,10.40
2020,12,06,14,29,10.30
2020,12,06,14,30,10.30
2020,12,06,14,31,10.30
2020,12,06,14,32,10.30
2020,12,06,14,33,10.30
2020,12,06,14,34,10.30
2020,12,06,14,35,10.30
2020,12,06,14,36,10.30
2020,12,06,14,37,10.30
2020,12,06,14,38,10.30
2020,12,06,14,39,10.20
2020,12,06,14,40,10.20
2020,12,06,14,41,10.20
2020,12,06,14,42,10.20
2020,12,06,14,43,10.20
2020,12,06,14,44,10.20
2020,12,06,14,45,10.20
2020,12,06,14,46,10.20
2020,12,06,14,47,10.20
2020,12,06,14,48,10.20
2020,12,06,14,49,10.20
2020,12,06,14,50,10.20
2020,12,06,14,51,10.20
2020,12,06,14,52,10.20
2020,12,06,14,53,10.20
2020,12,06,14,54,10.20
2020,12,06,14,55,10.20
2020,12,06,14,56,10.20
2020,12,06,14,57,10.20
2020,12,06,14,58,10.20
2020,12,06,14,59,10.20
2020,12,06,15,00,10.10
2020,12,06,15,01,10.10
2020,12,06,15,02,10.10
2020,12,06,15,03,10.20
2020,12,06,15,04,10.20
2020,12,06,15,05,10.20
2020,12,06,15,06,10.20
2020,12,06,15,07,10.10
2020,12,06,15,08,10.10
2020,12,06,15,09,10.20
2020,12,06,15,10,10.10
2020,12,06,15,11,10.20
2020,12,06,15,12,10.10
2020,12,06,15,13,10.10
2020,12,06,15,14,10.20
2020,12,06,15,15,10.10
2020,12,06,15,16,10.10
2020,12,06,15,17,10.10
2020,12,06,15,18,10.10
2020,12,06,15,19,10.10
2020,12,06,15,20,10.10
2020,12,06,15,21,10.10
2020,12,06,15,22,10.10
2020,12,06,15,23,10.10
2020,12,06,15,24,10.10
2020,12,06,15,25,10.10
2020,12,06,15,26,10.10
2020,12,06,15,27,10.10
2020,12,06,15,28,10.10
2020,12,06,15,29,10.10
2020,12,06,15,30,10.10
2020,12,06,15,31,10.10
2020,12,06,15,32,10.10
2020,12,06,15,33,10.10
2020,12,06,15,34,10.10
2020,12,06,15,35,10.10
2020,12,06,15,36,10.00
2020,12,06,15,37,10.00
2020,12,06,15,38,10.00
2020,12,06,15,39,10.00
2020,12,06,15,40,10.00
2020,12,06,15,41,9.90
2020,12,06,15,42,9.90
2020,12,06,15,43,9.90
2020,12,06,15,44,9.90
2020,12,06,15,45,9.90
2020,12,06,15,46,9.90
2020,12,06,15,47,9.80
2020,12,06,15,48,9.80
2020,12,06,15,49,9.80
2020,12,06,15,50,9.80
2020,12,06,15,51,9.80
2020,12,06,15,52,9.70
2020,12,06,15,53,9.70
2020,12,06,15,54,9.70
2020,12,06,15,55,9.70
2020,12,06,15,56,9.70
2020,12,06,15,57,9.70
2020,12,06,15,58,9.70
2020,12,06,15,59,9.60
2020,12,06,16,00,9.60
2020,12,06,16,01,9.60
2020,12,06,16,02,9.60
2020,12,06,16,03,9.60
2020,12,06,16,04,9.60
2020,12,06,16,05,9.60
2020,12,06,16,06,9.60
2020,12,06,16,07,9.60
2020,12,06,16,08,9.60
2020,12,06,16,09,9.60
2020,12,06,16,10,9.60
2020,12,06,16,11,9.60
2020,12,06,16,12,9.60
2020,12,06,16,13,9.60
2020,12,06,16,14,9.60
2020,12,06,16,15,9.60
2020,12,06,16,16,9.60
2020,12,06,16,17,9.60
2020,12,06,16,18,9.60
2020,12,06,16,19,9.60
2020,12,06,16,20,9.60
2020,12,06,16,21,9.60
2020,12,06,16,22,9.60
2020,12,06,16,23,9.60
2020,12,06,16,24,9.70
2020,12,06,16,25,9.60
2020,12,06,16,26,9.70
2020,12,06,16,27,9.70
2020,12,06,16,28,9.70
2020,12,06,16,29,9.70
2020,12,06,16,30,9.60
2020,12,06,16,31,9.60
2020,12,06,16,32,9.60
2020,12,06,16,33,9.60
2020,12,06,16,34,9.60
2020,12,06,16,35,9.60
2020,12,06,16,36,9.60
2020,12,06,16,37,9.60
2020,12,06,16,38,9.70
2020,12,06,16,39,9.70
2020,12,06,16,40,9.70
2020,12,06,16,41,9.70
2020,12,06,16,42,9.60
2020,12,06,16,43,9.60
2020,12,06,16,44,9.60
2020,12,06,16,45,9.60
2020,12,06,16,46,9.60
2020,12,06,16,47,9.60
2020,12,06,16,48,9.60
2020,12,06,16,49,9.60
2020,12,06,16,50,9.60
2020,12,06,16,51,9.60
2020,12,06,16,52,9.60
2020,12,06,16,53,9.60
2020,12,06,16,54,9.60
2020,12,06,16,55,9.70
2020,12,06,16,56,9.70
2020,12,06,16,57,9.70
2020,12,06,16,58,9.70
2020,12,06,16,59,9.70
2020,12,06,17,00,9.70
2020,12,06,17,01,9.70
2020,12,06,17,02,9.70
2020,12,06,17,03,9.70
2020,12,06,17,04,9.70
2020,12,06,17,05,9.70
2020,12,06,17,06,9.70
2020,12,06,17,07,9.70
2020,12,06,17,08,9.70
2020,12,06,17,09,9.70
2020,12,06,17,10,9.70
2020,12,06,17,11,9.70
2020,12,06,17,12,9.70
2020,12,06,17,13,9.70
2020,12,06,17,14,9.70
2020,12,06,17,15,9.70
2020,12,06,17,16,9.70
2020,12,06,17,17,9.60
2020,12,06,17,18,9.60
2020,12,06,17,19,9.60
2020,12,06,17,20,9.60
2020,12,06,17,21,9.60
2020,12,06,17,22,9.60
2020,12,06,17,23,9.60
2020,12,06,17,24,9.60
2020,12,06,17,25,9.50
2020,12,06,17,26,9.50
2020,12,06,17,27,9.50
2020,12,06,17,28,9.50
2020,12,06,17,29,9.50
2020,12,06,17,30,9.50
2020,12,06,17,31,9.50
2020,12,06,17,32,9.50
2020,12,06,17,33,9.50
2020,12,06,17,34,9.50
2020,12,06,17,35,9.50
2020,12,06,17,36,9.50
2020,12,06,17,37,9.50
2020,12,06,17,38,9.60
2020,12,06,17,39,9.60
2020,12,06,17,40,9.60
2020,12,06,17,41,9.60
2020,12,06,17,42,9.60
2020,12,06,17,43,9.60
2020,12,06,17,44,9.60
2020,12,06,17,45,9.60
2020,12,06,17,46,9.60
2020,12,06,17,47,9.60
2020,12,06,17,48,9.60
2020,12,06,17,49,9.60
2020,12,06,17,50,9.60
2020,12,06,17,51,9.60
2020,12,06,17,52,9.60
2020,12,06,17,53,9.60
2020,12,06,17,54,9.60
2020,12,06,17,55,9.60
2020,12,06,17,56,9.60
2020,12,06,17,57,9.60
2020,12,06,17,58,9.60
2020,12,06,17,59,9.60
2020,12,06,18,00,9.60
2020,12,06,18,01,9.60
2020,12,06,18,02,9.60
2020,12,06,18,03,9.60
2020,12,06,18,04,9.60
2020,12,06,18,05,9.60
2020,12,06,18,06,9.60
2020,12,06,18,07,9.60
2020,12,06,18,08,9.60
2020,12,06,18,09,9.60
2020,12,06,18,10,9.50
2020,12,06,18,11,9.50
2020,12,06,18,12,9.50
2020,12,06,18,13,9.50
2020,12,06,18,14,9.50
2020,12,06,18,15,9.50
2020,12,06,18,16,9.50
2020,12,06,18,17,9.50
2020,12,06,18,18,9.50
2020,12,06,18,19,9.50
2020,12,06,18,20,9.50
2020,12,06,18,21,9.50
2020,12,06,18,22,9.50
2020,12,06,18,23,9.50
2020,12,06,18,24,9.50
2020,12,06,18,25,9.50
2020,12,06,18,26,9.50
2020,12,06,18,27,9.50
2020,12,06,18,28,9.50
2020,12,06,18,29,9.50
2020,12,06,18,30,9.40
2020,12,06,18,31,9.40
2020,12,06,18,32,9.40
2020,12,06,18,33,9.40
2020,12,06,18,34,9.40
2020,12,06,18,35,9.40
2020,12,06,18,36,9.40
2020,12,06,18,37,9.40
2020,12,06,18,38,9.40
2020,12,06,18,39,9.40
2020,12,06,18,40,9.30
2020,12,06,18,41,9.30
2020,12,06,18,42,9.30
2020,12,06,18,43,9.30
2020,12,06,18,44,9.30
2020,12,06,18,45,9.30
2020,12,06,18,46,9.30
2020,12,06,18,47,9.20
2020,12,06,18,48,9.20
2020,12,06,18,49,9.20
2020,12,06,18,50,9.20
2020,12,06,18,51,9.20
2020,12,06,18,52,9.20
2020,12,06,18,53,9.20
2020,12,06,18,54,9.20
2020,12,06,18,55,9.20
2020,12,06,18,56,9.20
2020,12,06,18,57,9.20
2020,12,06,18,58,9.20
2020,12,06,18,59,9.20
2020,12,06,19,00,9.20
2020,12,06,19,01,9.20
2020,12,06,19,02,9.20
2020,12,06,19,03,9.20
2020,12,06,19,04,9.20
2020,12,06,19,05,9.20
2020,12,06,19,06,9.20
2020,12,06,19,07,9.20
2020,12,06,19,08,9.20
2020,12,06,19,09,9.20
2020,12,06,19,10,9.20
2020,12,06,19,11,9.20
2020,12,06,19,12,9.20
2020,12,06,19,13,9.20
2020,12,06,19,14,9.20
2020,12,06,19,15,9.20
2020,12,06,19,16,9.20
2020,12,06,19,17,9.20
2020,12,06,19,18,9.20
2020,12,06,19,19,9.20
2020,12,06,19,20,9.20
2020,12,06,19,21,9.20
2020,12,06,19,22,9.20
2020,12,06,19,23,9.20
2020,12,06,19,24,9.20
2020,12,06,19,25,9.20
2020,12,06,19,26,9.20
2020,12,06,19,27,9.20
2020,12,06,19,28,9.20
2020,12,06,19,29,9.30
2020,12,06,19,30,9.20
2020,12,06,19,31,9.20
2020,12,06,19,32,9.20
2020,12,06,19,33,9.20
2020,12,06,19,34,9.20
2020,12,06,19,35,9.20
2020,12,06,19,36,9.20
2020,12,06,19,37,9.20
2020,12,06,19,38,9.20
2020,12,06,19,39,9.20
2020,12,06,19,40,9.20
2020,12,06,19,41,9.20
2020,12,06,19,42,9.20
2020,12,06,19,43,9.20
2020,12,06,19,44,9.20
2020,12,06,19,45,9.20
2020,12,06,19,46,9.20
2020,12,06,19,47,9.20
2020,12,06,19,48,9.20
2020,12,06,19,49,9.30
2020,12,06,19,50,9.30
2020,12,06,19,51,9.30
2020,12,06,19,52,9.30
2020,12,06,19,53,9.30
2020,12,06,19,54,9.30
2020,12,06,19,55,9.30
2020,12,06,19,56,9.20
2020,12,06,19,57,9.20
2020,12,06,19,58,9.20
2020,12,06,19,59,9.20
2020,12,06,20,00,9.20
2020,12,06,20,01,9.20
2020,12,06,20,02,9.20
2020,12,06,20,03,9.20
2020,12,06,20,04,9.20
2020,12,06,20,05,9.20
2020,12,06,20,06,9.20
2020,12,06,20,07,9.20
2020,12,06,20,08,9.20
2020,12,06,20,09,9.20
2020,12,06,20,10,9.10
2020,12,06,20,11,9.10
2020,12,06,20,12,9.10
2020,12,06,20,13,9.10
2020,12,06,20,14,9.10
2020,12,06,20,15,9.00
2020,12,06,20,16,9.00
2020,12,06,20,17,9.00
2020,12,06,20,18,9.00
2020,12,06,20,19,9.00
2020,12,06,20,20,8.90
2020,12,06,20,21,8.90
2020,12,06,20,22,8.90
2020,12,06,20,23,8.80
2020,12,06,20,24,8.80
2020,12,06,20,25,8.80
2020,12,06,20,26,8.80
2020,12,06,20,27,8.80
2020,12,06,20,28,8.80
2020,12,06,20,29,8.80
2020,12,06,20,30,8.80
2020,12,06,20,31,8.80
2020,12,06,20,32,8.80
2020,12,06,20,33,8.80
2020,12,06,20,34,8.80
2020,12,06,20,35,8.80
2020,12,06,20,36,8.80
2020,12,06,20,37,8.80
2020,12,06,20,38,8.80
2020,12,06,20,39,8.80
2020,12,06,20,40,8.80
2020,12,06,20,41,8.90
2020,12,06,20,42,8.90
2020,12,06,20,43,8.90
2020,12,06,20,44,8.90
2020,12,06,20,45,9.00
2020,12,06,20,46,9.00
2020,12,06,20,47,9.00
2020,12,06,20,48,9.10
2020,12,06,20,49,9.10
2020,12,06,20,50,9.10
2020,12,06,20,51,9.20
2020,12,06,20,52,9.20
2020,12,06,20,53,9.20
2020,12,06,20,54,9.20
2020,12,06,20,55,9.20
2020,12,06,20,56,9.20
2020,12,06,20,57,9.20
2020,12,06,20,58,9.20
2020,12,06,20,59,9.30
2020,12,06,21,00,9.30
2020,12,06,21,01,9.30
2020,12,06,21,02,9.30
2020,12,06,21,03,9.30
2020,12,06,21,04,9.30
2020,12,06,21,05,9.30
2020,12,06,21,06,9.30
2020,12,06,21,07,9.30
2020,12,06,21,08,9.30
2020,12,06,21,09,9.30
2020,12,06,21,10,9.30
2020,12,06,21,11,9.30
2020,12,06,21,12,9.30
2020,12,06,21,13,9.30
2020,12,06,21,14,9.30
2020,12,06,21,15,9.30
2020,12,06,21,16,9.30
2020,12,06,21,17,9.30
2020,12,06,21,18,9.30
2020,12,06,21,19,9.30
2020,12,06,21,20,9.30
2020,12,06,21,21,9.40
2020,12,06,21,22,9.40
2020,12,06,21,23,9.40
2020,12,06,21,24,9.40
2020,12,06,21,25,9.30
2020,12,06,21,26,9.30
2020,12,06,21,27,9.30
2020,12,06,21,28,9.30
2020,12,06,21,29,9.30
2020,12,06,21,30,9.30
2020,12,06,21,31,9.30
2020,12,06,21,32,9.30
2020,12,06,21,33,9.30
2020,12,06,21,34,9.30
2020,12,06,21,35,9.30
2020,12,06,21,36,9.30
2020,12,06,21,37,9.30
2020,12,06,21,38,9.30
2020,12,06,21,39,9.30
2020,12,06,21,40,9.30
2020,12,06,21,41,9.30
2020,12,06,21,42,9.30
2020,12,06,21,43,9.30
2020,12,06,21,44,9.30
2020,12,06,21,45,9.30
2020,12,06,21,46,9.30
2020,12,06,21,47,9.30
2020,12,06,21,48,9.30
2020,12,06,21,49,9.30
2020,12,06,21,50,9.30
2020,12,06,21,51,9.30
2020,12,06,21,52,9.30
2020,12,06,21,53,9.30
2020,12,06,21,54,9.30
2020,12,06,21,55,9.30
2020,12,06,21,56,9.30
2020,12,06,21,57,9.30
2020,12,06,21,58,9.30
2020,12,06,21,59,9.30
2020,12,06,22,00,9.30
2020,12,06,22,01,9.30
2020,12,06,22,02,9.30
2020,12,06,22,03,9.30
2020,12,06,22,04,9.30
2020,12,06,22,05,9.30
2020,12,06,22,06,9.30
2020,12,06,22,07,9.30
2020,12,06,22,08,9.30
2020,12,06,22,09,9.30
2020,12,06,22,10,9.30
2020,12,06,22,11,9.30
2020,12,06,22,12,9.30
2020,12,06,22,13,9.30
2020,12,06,22,14,9.30
2020,12,06,22,15,9.30
2020,12,06,22,16,9.30
2020,12,06,22,17,9.30
2020,12,06,22,18,9.30
2020,12,06,22,19,9.30
2020,12,06,22,20,9.30
2020,12,06,22,21,9.30
2020,12,06,22,22,9.30
2020,12,06,22,23,9.30
2020,12,06,22,24,9.30
2020,12,06,22,25,9.30
2020,12,06,22,26,9.30
2020,12,06,22,27,9.30
2020,12,06,22,28,9.30
2020,12,06,22,29,9.30
2020,12,06,22,30,9.30
2020,12,06,22,31,9.30
2020,12,06,22,32,9.30
2020,12,06,22,33,9.30
2020,12,06,22,34,9.30
2020,12,06,22,35,9.30
2020,12,06,22,36,9.30
2020,12,06,22,37,9.30
2020,12,06,22,38,9.30
2020,12,06,22,39,9.30
2020,12,06,22,40,9.30
2020,12,06,22,41,9.30
2020,12,06,22,42,9.30
2020,12,06,22,43,9.30
2020,12,06,22,44,9.30
2020,12,06,22,45,9.30
2020,12,06,22,46,9.30
2020,12,06,22,47,9.30
2020,12,06,22,48,9.30
2020,12,06,22,49,9.20
2020,12,06,22,50,9.20
2020,12,06,22,51,9.20
2020,12,06,22,52,9.20
2020,12,06,22,53,9.20
2020,12,06,22,54,9.20
2020,12,06,22,55,9.20
2020,12,06,22,56,9.20
2020,12,06,22,57,9.20
2020,12,06,22,58,9.20
2020,12,06,22,59,9.20
2020,12,06,23,00,9.20
2020,12,06,23,01,9.20
2020,12,06,23,02,9.20
2020,12,06,23,03,9.20